This demonstration page uses our WeatherBlox Daily Observations layout. Learn more.

Left ArrowRight Arrow

Hourly Observations for March 20, 2020

Temp ( °F °C ) Dew Point ( °F °C ) Humidity (%) Winds ( mph kmh ) Pressure ( in mb ) Visibility ( mi km ) Precip ( " mm )
12:53 am 00:53 Cloudy 12 -11.1 5 -15 73 73 ENE 13 20 30.58 1035 10 16 N/A
1:53 am 01:53 Partly Cloudy 9 -12.8 4 -15.6 80 80 ENE 12 19 30.57 1035 10 16 N/A
2:53 am 02:53 Cloudy 10 -12.2 5 -15 80 80 ENE 9 15 30.54 1034 10 16 N/A
3:53 am 03:53 Cloudy 9 -12.8 5 -15 84 84 ENE 13 20 30.52 1033 10 16 N/A
4:53 am 04:53 Cloudy 10 -12.2 6 -14.4 84 84 ENE 9 15 30.50 1033 10 16 N/A
5:53 am 05:53 Cloudy 11 -11.7 7 -13.9 84 84 ENE 12 19 30.48 1032 10 16 N/A
6:53 am 06:53 Cloudy 13 -10.6 8 -13.3 81 81 E 3 6 30.46 1032 10 16 N/A
7:53 am 07:53 Cloudy 14 -10 9 -12.8 80 80 SSE 3 6 30.45 1031 10 16 N/A
8:53 am 08:53 Cloudy 15 -9.4 10 -12.2 80 80 N N/A 30.44 1031 10 16 N/A
9:53 am 09:53 Cloudy 16 -8.9 12 -11.1 84 84 N N/A 30.42 1030 10 16 N/A
10:53 am 10:53 Mostly Sunny 22 -5.6 14 -10 71 71 N N/A 30.39 1029 10 16 N/A
11:53 am 11:53 Sunny 29 -1.7 17 -8.3 61 61 N N/A 30.36 1028 10 16 N/A
12:53 pm 12:53 Sunny 28 -2.2 17 -8.3 63 63 W 5 7 30.35 1028 10 16 N/A
1:53 pm 13:53 Sunny 30 -1.1 17 -8.3 58 58 W 5 7 30.33 1027 10 16 N/A
2:53 pm 14:53 Sunny 30 -1.1 19 -7.2 64 64 W 9 15 30.30 1026 10 16 N/A
3:53 pm 15:53 Sunny 30 -1.1 19 -7.2 64 64 WNW 8 13 30.29 1026 10 16 N/A
4:53 pm 16:53 Sunny 30 -1.1 17 -8.3 58 58 NW 6 9 30.28 1025 10 16 N/A
5:53 pm 17:53 Sunny 29 -1.7 18 -7.8 63 63 WNW 6 9 30.27 1025 10 16 N/A
6:53 pm 18:53 Sunny 28 -2.2 18 -7.8 66 66 NNW 3 6 30.25 1025 10 16 N/A
7:53 pm 19:53 Clear 25 -3.9 17 -8.3 72 72 N N/A 30.25 1025 10 16 N/A
8:53 pm 20:53 Clear 20 -6.7 16 -8.9 85 85 N N/A 30.26 1025 10 16 N/A
9:53 pm 21:53 Clear 16 -8.9 12 -11.1 84 84 SSE 6 9 30.25 1024 10 16 N/A
10:53 pm 22:53 Clear 16 -8.9 12 -11.1 84 84 N N/A 30.22 1024 10 16 N/A
11:53 pm 23:53 Clear 15 -9.4 12 -11.1 88 88 S 3 6 30.20 1023 10 16 N/A

Powered by AerisWeather